Погода в Хаме

Сирия     35°07′57″N   36°45′34″E
темп.,
°C
ветер,
м/с
пор.,
м/с
влажн.,
%
обл.,
%
осадки,
мм/ч
давл.,
гПа
погр.,
м
17 мая, вт
вт1700:00+17зюз33670 0.0 101679
03:00+15зюз12720 0.0 101521
06:00+15ю22700 0.0 101528
09:00+21юз22410 0.0 1015494
12:00+27зсз34280 0.0 10131506
15:00+29зсз76240 0.0 10112350
18:00+26зсз77300 0.0 1011888
21:00+20з35490 0.0 1014111
18 мая, ср
ср1800:00+18юз22530 0.0 101423
03:00+17ююз22540 0.0 101322
06:00+16ююз11540 0.0 101311
09:00+23зюз33360 0.0 1014504
12:00+28зсз45260 0.0 10132061
15:00+30з76230 0.0 10112573
18:00+27зсз76260 0.0 10111360
21:00+21з33520 0.0 101357
19 мая, чт
чт1900:00+18ююз22610 0.0 101320
03:00+17ююз22600 0.0 101313
06:00+17ю22590 0.0 101414
09:00+23юз23390 0.0 1014483
12:00+29з46230 0.0 10132332
15:00+29зюз99210 0.0 10121966
18:00+26з79230 0.0 10121197
21:00+19з23490 0.0 101442
20 мая, пт
пт2000:00+18ююз11550 0.0 101511
03:00+16юз22610 0.0 101415
06:00+16ююз11650 0.0 101514
09:00+22зсз11460 0.0 1015528
12:00+27сз34290 0.0 10151669
15:00+31зсз76180 0.0 10132543
18:00+28зсз65250 0.0 10131199
21:00+21зсз23420 0.0 101546
21 мая, сб
сб2100:00+19з11460 0.0 101511
03:00+17зсз11490 0.0 101411
06:00+17з00483 0.0 101511
09:00+24ююв01290 0.0 1015479
12:00+29з111694 0.0 10131402
15:00+32сз2411100 0.0 10112372
18:00+32сз441234 0.0 10101517
21:00+25сз22255 0.0 101113